sat.trackr.live / text

‹ back to catalog

TRANSPORTER-14 OBJECT AC

NORAD 64554 · 2025-135AC

PAYLOAD ACTIVE UNKNOWN

§ Identity

Operator
Country
TBD
Launch date
2025-06-23
Launch site
AFWTR
Launch vehicle
Mass (kg)
RCS (m²)

External: N2YO · Heavens-Above · Gunter

§ Orbital elements

Epoch: 2026-09-21T13:10:12.582336Z

Period
93.87 min
Inclination
97.4710°
Eccentricity
0.0001078
Mean motion
15.34117822 rev/d
Perigee alt
462.8 km
Apogee alt
464.3 km
Semi-major
6,841.7 km
B*
4.7682e-4
RAAN
22.5211°
Arg perigee
353.9397°
Mean anomaly
6.1832°
Rev number
6,976

§ Raw data

TRANSPORTER-14 OBJECT AC1 64554U 25135AC  26264.54875674  .00015677  00000+0  47682-3 0  99912 64554  97.4710  22.5211 0001078 353.9397   6.1832 15.34117822 69764

JSON: /api/v1/satellites/64554 · /tle

For live sub-satellite position, see the globe view (requires WebGL).

§ Visibility from observer

Set your observer location to see the next 7 days of passes ≥ 10°. The values pass through the URL so the page stays shareable.

No JS? Fill the form by hand. The geolocation button needs JavaScript.